CYXY

Whitehorse/Erik Nielsen International Airport

Airport
ICAO code
CYXY
IATA Code
YXY
Summary
ICAO Region
NAM
ICAO Territory
Location

Whitehorse, Yukon,

Serving
Whitehorse
Elevation
2317 ft
Coordinates
60° 42' 46" N , 135° 4' 11" W
KCC
Metar
CYXY 161200Z 20007KT 15SM SKC M04/M12 A3038 RMK SLP330

Description

Erik Nielsen Whitehorse International Airport is located in Whitehorse, Yukon, Canada.

Climatology

Tundra climate (Köppen climate classification ET) - warmest month has an average temperature of 0 - 10 degrees C.

Runways

Designator Length Width Surface Rops
1/19 632 23 ASP Yes/Yes
13L/31R 1219 24 ASP Yes/Yes
13R/31L 2895 46 ASP Yes/Yes

Airport map

Aerial View

SKYbrary Partners:

Safety knowledge contributed by: